リニア彗星

P/2001 CV8 ( LINEAR ) 2008

English version
Home page
Total 6,336 html files since Dec. 4, 1995
Updated on July 28, 2008

---------------------------------------------------------------------

・ プロフィール

・ 軌道要素

Perturbed ephemeris below is based on elements from MPC 42665. 

 Epoch = 2454760.50000 TT   T = 2454750.84967 TT
 Peri. =  151.60313         a =     3.8859691 AU
 Node  =  359.89213 J2000.0 e =     0.4441620
 Incl. =    9.03571         q =     2.1599695 AU

・ 光度変化

        m1 = 2.0 + 5 logΔ + 45 log r

---------------------------------------------------------------------

軌道要素はMinor Planet & Comet Ephemeris Serviceで計算したものです。
光度グラフはComet for Windowsで作成したものです。

---------------------------------------------------------------------

Copyright(C) 1995-2008 Seiichi Yoshida (comet@aerith.net). All rights reserved.